Seattle, WA

11:29 AM PDT on June 25, 2017 (GMT -0700)
Seattle-Tacoma International

Weather History for KSEA - March, 2014

Change the Weather History Date:

Thursday, March 27, 2014

  Actual Average Record
Temperature  
Mean Temperature 49 °F 48 °F  
Max Temperature 54 °F 55 °F 71 °F (1994)
Min Temperature 44 °F 41 °F 26 °F (1975)
Degree Days  
Heating Degree Days 16 17  
Month to date heating degree days 437 505  
Since 1 July heating degree days 3512 3759  
Cooling Degree Days 0 0  
Month to date cooling degree days 0 0  
Year to date cooling degree days 0 0  
Moisture  
Dew Point 42 °F    
Average Humidity 79    
Maximum Humidity 92    
Minimum Humidity 66    
Precipitation  
Precipitation 0.01 in 0.11 in 0.64 in (1968)
Month to date precipitation 8.02 3.28  
Year to date precipitation 17.83 12.35  
Snow  
Snow 0.00 in - T in (2008)
Month to date snowfall T  
Since 1 July snowfall 4.0  
Snow Depth 0.00 in    
Sea Level Pressure  
Sea Level Pressure 29.77 in    
Wind  
Wind Speed 6 mph (South)    
Max Wind Speed 23 mph    
Max Gust Speed 30 mph    
Visibility 9 miles    
Events      
T = Trace of Precipitation, MM = Missing Value Source: NWS Daily Summary

Daily Weather History Graph

Daily Weather History Graph

Search for Another Location

Airport or City:

Trip Planner

Search our weather history database for the weather conditions in past years. The results will help you decide how hot, cold, wet, or windy it might be!

Date:

Astronomy

Mar. 27, 2014 Rise Set
Actual Time 6:57 AM PDT 7:32 PM PDT
Civil Twilight 6:27 AM PDT 8:02 PM PDT
Nautical Twilight 5:50 AM PDT 8:39 PM PDT
Astronomical Twilight 5:12 AM PDT 9:18 PM PDT
Moon 5:06 AM PDT (3/27) 4:14 PM PDT (3/27)
Length of Visible Light 13h 35m
Length of Day
12h 34m
Waning Crescent, 12% of the Moon is Illuminated
Mar 27
Waning Crescent
Mar 30
New
Apr 7
First Quarter
Apr 15
Full
Apr 22
Last Quarter

Hourly Weather History & Observations

Time (PDT) Temp. Windchill Dew Point Humidity Pressure Visibility Wind Dir Wind Speed Gust Speed Precip Events Conditions
12:53 AM 45.0 °F - 42.1 °F 90% 29.61 in 10.0 mi Calm Calm - 0.00 in   Overcast
1:53 AM 44.1 °F - 42.1 °F 93% 29.61 in 10.0 mi Calm Calm - N/A   Overcast
2:53 AM 45.0 °F 43.5 °F 41.0 °F 86% 29.62 in 10.0 mi South 3.5 mph - N/A   Overcast
3:53 AM 45.0 °F 43.5 °F 41.0 °F 86% 29.62 in 10.0 mi South 3.5 mph - N/A   Overcast
4:53 AM 44.1 °F - 41.0 °F 89% 29.64 in 10.0 mi Calm Calm - 0.00 in   Overcast
5:53 AM 45.0 °F 43.5 °F 41.0 °F 86% 29.65 in 10.0 mi ESE 3.5 mph - N/A   Overcast
6:53 AM 45.0 °F - 41.0 °F 86% 29.67 in 10.0 mi Calm Calm - N/A   Overcast
7:08 AM 44.6 °F - 42.8 °F 93% 29.65 in 10.0 mi Calm Calm - N/A   Overcast
7:53 AM 45.0 °F 41.8 °F 41.0 °F 86% 29.69 in 10.0 mi SE 5.8 mph - N/A   Overcast
8:53 AM 45.0 °F - 42.1 °F 90% 29.71 in 4.0 mi Calm Calm - 0.00 in   Light Drizzle
9:00 AM 44.6 °F 43.1 °F 42.8 °F 93% 29.69 in 5.0 mi South 3.5 mph - 0.00 in   Light Drizzle
9:33 AM 46.4 °F - 42.8 °F 87% 29.70 in 5.0 mi Calm Calm - 0.01 in   Light Drizzle
9:53 AM 46.0 °F - 43.0 °F 89% 29.74 in 5.0 mi Calm Calm - 0.01 in   Overcast
10:34 AM 46.4 °F 43.5 °F 42.8 °F 87% 29.73 in 10.0 mi South 5.8 mph - N/A   Mostly Cloudy
10:53 AM 48.0 °F - 43.0 °F 83% 29.76 in 10.0 mi South 6.9 mph - N/A   Overcast
11:53 AM 48.9 °F - 43.0 °F 80% 29.78 in 10.0 mi SSW 9.2 mph - N/A   Mostly Cloudy
12:53 PM 48.0 °F - 43.0 °F 83% 29.80 in 10.0 mi South 4.6 mph - N/A   Mostly Cloudy
1:29 PM 51.8 °F - 42.8 °F 71% 29.77 in 10.0 mi South 10.4 mph - N/A   Mostly Cloudy
1:53 PM 51.1 °F - 41.0 °F 68% 29.80 in 10.0 mi South 6.9 mph - N/A   Mostly Cloudy
2:53 PM 53.1 °F - 42.1 °F 66% 29.81 in 10.0 mi South 10.4 mph - N/A   Mostly Cloudy
3:43 PM 53.6 °F - 42.8 °F 67% 29.80 in 10.0 mi SW 11.5 mph 18.4 mph 0.00 in   Overcast
3:53 PM 52.0 °F - 43.0 °F 71% 29.83 in 10.0 mi SSW 10.4 mph - 0.00 in   Mostly Cloudy
4:53 PM 51.1 °F - 43.0 °F 74% 29.84 in 10.0 mi SW 12.7 mph - N/A   Mostly Cloudy
5:53 PM 51.1 °F - 44.1 °F 77% 29.85 in 10.0 mi SSW 9.2 mph - N/A   Mostly Cloudy
6:53 PM 51.1 °F - 41.0 °F 68% 29.86 in 10.0 mi SW 12.7 mph - N/A   Scattered Clouds
7:53 PM 48.9 °F - 41.0 °F 74% 29.87 in 10.0 mi SSW 10.4 mph - N/A   Scattered Clouds
8:53 PM 48.9 °F - 42.1 °F 77% 29.89 in 10.0 mi South 6.9 mph - N/A   Mostly Cloudy
9:23 PM 48.2 °F - 42.8 °F 82% 29.87 in 10.0 mi South 6.9 mph - N/A   Mostly Cloudy
9:53 PM 48.0 °F - 43.0 °F 83% 29.91 in 10.0 mi South 11.5 mph - N/A   Overcast
10:37 PM 48.2 °F - 42.8 °F 82% 29.89 in 10.0 mi South 9.2 mph - N/A   Mostly Cloudy
10:53 PM 46.9 °F - 42.1 °F 83% 29.91 in 10.0 mi South 11.5 mph - N/A   Mostly Cloudy
11:53 PM 46.0 °F 43.1 °F 41.0 °F 83% 29.92 in 10.0 mi SSE 5.8 mph - N/A   Mostly Cloudy